Retour au catalogue

COSMOS 2251 DEB

ActifLEO
NORAD 34472·DEBRIS·🇷🇺 Russia

Lancé Jun 16, 1993 depuis Plesetsk Cosmodrome

Loading…

Prochains Passages (prochaines 24 heures)

TLE

FraisSource: Space-Track

Époque: Sep 14, 2026, 10:21 UTC

1 34472U 93036TR  26257.43174651  .00000856  00000-0  66933-3 0  9993
2 34472  74.0850   4.4062 0328217  71.1893 292.4522 13.71001504875046

Suivez COSMOS 2251 DEB en temps réel avec AllMySat

Download on the App Store